Wind_Speed
32 31 31 31 31 30 30 29 28 28 27 27 28 29 30 31 31 31 31 31 31 30 30 30 30 30 30 30 30 29 29 28 28 28 28 27 27 27
32 31 32 32 32 31 31 30 30 29 28 28 28 28 29 30 31 32 32 33 33 32 31 31 31 31 31 31 31 31 30 29 28 28 28 27 27 27
33 33 33 34 33 33 33 33 32 32 31 30 30 30 30 30 30 32 33 33 33 33 31 31 31 32 32 31 30 30 29 28 27 27 27 27 27 27
34 34 34 35 36 36 36 35 34 34 33 32 32 31 31 30 30 31 32 32 32 32 32 31 30 29 29 29 28 27 26 25 25 25 25 25 26 26
32 34 35 36 37 38 38 38 38 37 36 34 33 31 30 30 30 30 30 30 29 30 30 29 29 27 27 27 26 25 23 22 21 21 22 23 24 25
29 31 32 34 36 37 38 38 38 38 37 35 34 33 31 29 28 28 27 27 27 26 26 26 26 25 24 23 22 21 20 19 19 20 21 22 23 24
25 27 28 29 31 32 33 34 35 36 36 35 33 32 31 30 28 26 25 24 24 24 23 23 22 21 20 19 18 17 16 16 17 18 19 20 21 23
22 23 23 24 25 27 28 29 30 30 31 31 30 30 31 29 26 25 24 23 22 22 21 19 17 17 16 16 15 14 14 15 16 17 18 19 20 20
20 21 20 21 21 22 22 22 23 23 25 26 27 26 27 26 24 23 23 22 21 20 19 17 16 15 14 13 13 12 13 13 14 15 15 16 17 17
20 19 18 18 18 19 19 19 20 20 21 22 23 23 23 23 22 20 20 20 19 18 16 15 14 13 12 11 11 11 11 12 12 12 13 13 12 11
18 18 17 16 15 16 17 18 17 17 18 19 20 20 20 20 20 20 19 19 17 16 14 13 13 12 11 10 10 9 9 9 9 9 8 7 7 7
15 15 15 15 14 14 15 15 15 14 15 17 18 18 18 17 17 17 17 16 15 13 12 11 11 10 9 8 7 6 6 5 4 4 4 4 6 7
12 13 14 14 13 14 15 14 14 14 15 15 16 17 18 17 16 15 14 13 12 11 10 10 9 9 8 7 6 5 4 2 1 1 3 4 6 7
10 12 13 13 13 13 14 13 14 14 15 15 15 15 16 17 16 15 13 12 11 10 10 9 9 8 8 7 6 5 3 2 0 1 2 4 6 7
8 11 13 13 14 14 15 14 15 15 15 14 14 15 15 15 15 13 12 11 10 10 10 10 9 8 8 7 6 5 3 2 1 1 3 5 7 8
11 13 14 15 15 16 15 14 15 15 15 15 15 15 14 13 12 11 11 11 10 10 10 10 10 9 8 8 6 5 3 2 1 2 4 6 8 9
15 16 17 17 16 16 16 15 15 15 15 14 14 13 12 11 11 10 10 10 10 10 10 10 10 9 9 7 6 4 3 2 2 4 5 7 9 10
16 16 16 17 16 15 15 15 16 15 14 13 12 12 11 11 11 10 10 10 10 10 10 10 10 9 8 6 5 4 3 3 4 5 7 8 10 11
18 17 17 17 16 15 15 15 15 14 13 12 11 11 11 11 10 10 10 10 10 10 10 10 9 8 7 6 5 4 3 4 5 6 8 9 10 12
19 17 17 16 16 15 15 14 14 14 12 12 11 11 11 11 11 11 11 11 11 10 9 8 8 7 6 5 4 4 4 5 6 8 9 10 11 12
20 19 17 16 16 15 15 14 13 13 12 12 12 12 11 11 11 11 11 11 10 9 8 7 7 6 6 5 4 5 6 7 8 10 11 11 12 12
20 19 18 17 16 15 14 13 13 12 12 12 12 12 11 11 11 11 11 10 8 8 7 6 6 6 5 5 6 7 8 9 10 11 12 12 13 13
18 17 17 16 15 14 14 13 12 12 12 12 11 11 11 11 10 10 9 8 7 6 6 6 5 5 6 7 8 9 11 11 12 12 13 13 13 13
Wind_Direction
242 240 240 240 239 241 241 241 243 247 251 253 255 256 258 256 255 255 256 260 260 261 262 262 263 264 266 269 272 275 278 279 279 280 282 284 286 289
243 243 242 241 241 242 242 243 244 247 250 254 256 258 259 259 257 257 257 258 259 259 260 261 263 264 265 268 271 273 276 277 278 279 280 282 284 286
245 243 243 243 242 243 243 245 246 248 251 254 257 259 260 261 261 258 257 257 258 257 257 259 262 264 266 268 270 273 275 276 277 278 280 282 284 286
247 246 244 244 243 243 245 246 248 250 252 254 257 260 260 261 262 260 258 258 257 256 255 258 260 263 265 267 270 272 274 275 277 279 281 283 286 288
249 248 247 247 246 246 247 248 249 251 253 255 257 258 260 261 261 260 259 256 254 255 256 256 258 260 264 266 267 270 270 273 275 279 282 286 290 291
254 253 252 250 249 249 250 250 251 252 253 253 255 255 258 261 262 261 257 256 253 252 254 255 257 259 262 264 265 265 267 271 276 282 286 290 292 294
257 256 254 252 251 250 251 251 250 251 250 251 252 251 253 255 256 254 254 254 251 250 251 252 254 256 258 258 259 262 267 274 281 286 290 294 296 298
258 257 256 253 251 250 250 250 249 248 248 248 247 247 248 248 248 248 247 246 245 244 243 245 248 250 251 253 257 263 271 278 284 289 294 297 300 303
258 256 255 252 250 246 246 246 245 244 243 243 242 242 241 241 242 240 239 238 238 238 239 241 244 245 247 251 257 267 274 280 287 294 298 302 306 310
255 251 249 246 243 240 238 238 237 237 236 234 232 233 235 234 234 232 230 229 231 232 234 234 236 239 242 249 258 266 273 283 292 299 304 309 316 325
249 243 240 238 235 231 228 227 227 225 223 222 224 224 223 223 223 220 220 221 224 227 227 229 230 232 238 246 254 264 274 283 293 303 316 330 344 355
240 231 228 224 221 216 211 210 212 211 208 207 210 209 208 205 207 208 212 215 219 221 219 219 222 227 234 240 248 256 264 276 295 321 347 6 14 14
224 214 209 208 206 198 193 196 195 193 193 194 197 198 195 193 194 196 196 200 206 207 209 210 214 217 221 225 227 226 231 251 298 4 24 29 25 17
205 198 195 192 190 184 182 184 185 182 175 173 177 184 187 187 185 186 189 191 194 197 197 197 201 205 208 208 203 201 201 192 136 51 35 21 13 9
162 167 169 171 171 167 162 161 159 157 157 161 166 172 175 177 177 177 179 183 185 187 188 189 192 193 192 189 187 183 175 163 136 18 360 354 353 353
124 138 144 150 151 150 150 149 146 148 147 151 157 162 166 170 176 180 184 184 184 185 187 184 182 181 181 179 175 173 172 177 252 326 336 340 340 340
107 121 127 135 142 141 141 137 135 139 145 148 150 153 158 164 169 173 177 178 180 179 178 175 174 175 176 177 179 184 201 240 290 313 325 329 331 334
99 110 119 126 130 131 132 134 135 137 139 143 150 157 163 166 168 171 173 173 173 173 172 171 171 172 177 185 196 211 234 264 293 310 320 327 330 332
92 102 111 119 124 129 132 134 137 140 141 142 147 152 157 159 161 163 164 165 165 164 164 165 169 176 185 194 207 225 250 278 300 313 320 324 327 331
84 93 102 110 116 122 127 131 134 137 139 141 144 147 148 149 151 155 157 158 159 160 164 170 177 184 191 201 217 241 269 293 308 316 322 326 329 332
81 87 94 102 108 114 119 123 127 131 134 136 139 141 142 144 147 150 153 155 158 162 168 174 182 191 203 223 247 268 287 302 312 319 323 326 329 331
79 85 91 97 102 107 111 116 120 124 126 130 134 136 138 141 145 148 151 155 161 169 176 183 193 207 227 252 273 287 298 306 313 318 322 324 326 328
78 83 88 94 98 102 106 111 116 120 123 127 131 136 139 142 147 152 158 165 174 181 189 199 215 237 258 274 285 295 302 309 313 317 319 320 322 324
Height
5808 5811 5815 5819 5823 5826 5830 5833 5837 5840 5842 5844 5847 5849 5850 5853 5855 5856 5858 5860 5861 5862 5863 5864 5865 5866 5867 5867 5868 5868 5868 5867 5866 5866 5865 5864 5862 5861
5799 5802 5806 5810 5813 5818 5821 5825 5828 5832 5834 5837 5839 5841 5843 5845 5847 5848 5851 5852 5853 5855 5856 5857 5858 5859 5860 5861 5861 5861 5861 5861 5860 5859 5858 5857 5856 5854
5790 5794 5798 5801 5805 5809 5812 5816 5820 5823 5826 5829 5831 5833 5835 5837 5839 5841 5843 5844 5845 5847 5848 5850 5851 5852 5853 5853 5854 5854 5854 5854 5853 5853 5852 5851 5849 5848
5782 5785 5789 5792 5796 5800 5803 5807 5810 5814 5817 5820 5823 5825 5827 5829 5831 5833 5835 5836 5838 5839 5841 5842 5844 5845 5845 5846 5847 5847 5847 5847 5847 5846 5846 5845 5843 5841
5773 5776 5779 5783 5786 5790 5794 5797 5801 5804 5808 5811 5814 5817 5819 5821 5823 5825 5827 5829 5830 5831 5833 5835 5836 5838 5839 5839 5840 5841 5841 5841 5841 5840 5840 5838 5837 5835
5764 5767 5770 5773 5776 5780 5783 5787 5791 5794 5798 5801 5805 5808 5811 5813 5815 5817 5819 5821 5823 5825 5826 5828 5830 5831 5832 5833 5834 5835 5835 5835 5835 5835 5834 5833 5831 5829
5756 5758 5761 5763 5766 5770 5773 5777 5780 5784 5788 5792 5795 5799 5802 5805 5808 5810 5812 5814 5816 5818 5820 5822 5824 5825 5827 5828 5829 5830 5830 5831 5830 5830 5829 5827 5825 5823
5749 5751 5753 5755 5758 5761 5765 5768 5772 5775 5779 5783 5787 5790 5794 5797 5800 5803 5806 5808 5810 5813 5814 5816 5819 5820 5822 5823 5824 5825 5826 5826 5826 5825 5823 5822 5820 5817
5742 5744 5746 5748 5751 5754 5757 5760 5764 5767 5771 5775 5779 5783 5787 5791 5794 5797 5799 5802 5805 5808 5810 5812 5814 5816 5818 5819 5820 5821 5821 5821 5821 5820 5818 5817 5815 5812
5735 5737 5740 5742 5745 5748 5752 5755 5758 5762 5765 5768 5773 5777 5781 5785 5788 5792 5794 5797 5800 5803 5805 5808 5810 5812 5814 5815 5816 5817 5817 5817 5817 5816 5814 5812 5810 5808
5728 5731 5734 5737 5740 5743 5747 5750 5753 5757 5760 5764 5768 5772 5776 5780 5783 5787 5790 5793 5796 5799 5801 5804 5806 5808 5810 5812 5813 5814 5814 5814 5813 5812 5811 5809 5807 5806
5722 5725 5729 5733 5736 5739 5743 5747 5750 5753 5757 5761 5765 5768 5772 5776 5779 5783 5786 5790 5792 5795 5798 5801 5803 5805 5807 5809 5809 5810 5811 5810 5810 5809 5809 5807 5806 5804
5717 5721 5725 5729 5733 5736 5740 5744 5748 5751 5755 5758 5762 5766 5769 5773 5777 5780 5783 5787 5790 5793 5796 5798 5801 5803 5805 5806 5807 5808 5808 5809 5808 5808 5807 5806 5805 5803
5715 5718 5723 5727 5731 5735 5739 5743 5747 5750 5753 5757 5760 5764 5768 5772 5775 5778 5781 5785 5788 5791 5794 5796 5799 5801 5803 5804 5805 5806 5807 5807 5807 5807 5806 5805 5804 5802
5714 5718 5722 5726 5730 5735 5739 5743 5747 5750 5753 5757 5760 5764 5767 5771 5774 5778 5781 5784 5787 5790 5792 5795 5797 5799 5801 5802 5804 5805 5805 5806 5806 5806 5805 5804 5802 5801
5717 5720 5723 5727 5732 5736 5741 5744 5748 5752 5755 5758 5761 5765 5768 5771 5774 5777 5781 5784 5786 5789 5791 5793 5795 5798 5800 5801 5803 5804 5804 5805 5805 5804 5803 5802 5801 5799
5723 5725 5728 5731 5735 5739 5743 5747 5750 5754 5757 5760 5763 5766 5769 5772 5775 5777 5780 5783 5786 5788 5790 5792 5795 5797 5799 5800 5802 5802 5803 5803 5803 5802 5801 5800 5798 5796
5730 5732 5734 5737 5740 5743 5746 5750 5753 5756 5759 5762 5765 5768 5770 5773 5775 5778 5781 5783 5785 5788 5790 5792 5794 5796 5798 5800 5801 5801 5801 5801 5801 5800 5799 5798 5796 5794
5737 5738 5740 5742 5745 5747 5750 5753 5756 5759 5761 5764 5767 5769 5772 5774 5776 5779 5781 5784 5786 5788 5790 5792 5794 5796 5798 5799 5799 5799 5800 5799 5799 5798 5797 5795 5793 5791
5745 5745 5746 5748 5750 5752 5754 5757 5759 5762 5764 5766 5769 5771 5773 5776 5778 5780 5783 5785 5787 5789 5791 5793 5794 5796 5797 5798 5798 5798 5798 5797 5797 5795 5794 5792 5791 5788
5752 5752 5753 5754 5755 5757 5759 5761 5763 5765 5767 5769 5771 5773 5776 5778 5780 5782 5784 5786 5788 5790 5792 5793 5794 5795 5796 5796 5797 5796 5796 5795 5794 5793 5791 5789 5787 5785
5759 5759 5759 5760 5761 5762 5764 5765 5767 5769 5770 5772 5774 5776 5778 5780 5782 5784 5786 5788 5789 5791 5792 5793 5794 5794 5795 5795 5795 5794 5794 5793 5791 5790 5788 5786 5784 5782
5766 5766 5765 5766 5766 5767 5768 5769 5771 5772 5774 5775 5777 5779 5780 5782 5784 5785 5787 5788 5790 5791 5791 5792 5793 5793 5793 5793 5793 5792 5791 5790 5788 5787 5785 5783 5781 5779